Satellite: NOAA-11
Catalog number: 19531
Epoch time:      08100.71317486
Element set:    0114
Inclination:      098.7957 deg
RA of node:       190.9959 deg
Eccentricity:    0.0010733
Arg of perigee:   263.4373 deg
Mean anomaly:     096.5572 deg
Mean motion:   14.14869977 rev/day
Decay rate:        8.8e-07 rev/day^2
Epoch rev:           00822
Checksum:              331

Satellite: NOAA-12
Catalog number: 21263
Epoch time:      08100.69746124
Element set:    0621
Inclination:      098.7669 deg
RA of node:       102.6563 deg
Eccentricity:    0.0011842
Arg of perigee:   328.9997 deg
Mean anomaly:     031.0502 deg
Mean motion:   14.25524990 rev/day
Decay rate:       -6.0e-07 rev/day^2
Epoch rev:           87863
Checksum:              307

Satellite: MET-3/5
Catalog number: 21655
Epoch time:      08100.97271045
Element set:    0426
Inclination:      082.5556 deg
RA of node:       152.5747 deg
Eccentricity:    0.0012974
Arg of perigee:   178.5773 deg
Mean anomaly:     181.5388 deg
Mean motion:   13.17014680 rev/day
Decay rate:        5.1e-07 rev/day^2
Epoch rev:           80060
Checksum:              302

Satellite: MET-2/21
Catalog number: 22782
Epoch time:      08100.72758613
Element set:     111
Inclination:      082.5501 deg
RA of node:       165.8830 deg
Eccentricity:    0.0024000
Arg of perigee:   120.0593 deg
Mean anomaly:     240.2954 deg
Mean motion:   13.83627429 rev/day
Decay rate:        6.7e-07 rev/day^2
Epoch rev:           73766
Checksum:              279

Satellite: OKEAN-4
Catalog number: 23317
Epoch time:      08101.76902533
Element set:     555
Inclination:      082.5426 deg
RA of node:       017.9740 deg
Eccentricity:    0.0022330
Arg of perigee:   354.1074 deg
Mean anomaly:     005.9880 deg
Mean motion:   14.82599468 rev/day
Decay rate:       2.96e-06 rev/day^2
Epoch rev:           72829
Checksum:              310

Satellite: NOAA-14
Catalog number: 23455
Epoch time:      08100.68511091
Element set:    0095
Inclination:      098.9493 deg
RA of node:       172.8766 deg
Eccentricity:    0.0008967
Arg of perigee:   344.0686 deg
Mean anomaly:     016.0214 deg
Mean motion:   14.13738902 rev/day
Decay rate:       1.73e-06 rev/day^2
Epoch rev:           68467
Checksum:              322

Satellite: SICH-1
Catalog number: 23657
Epoch time:      08100.73253596
Element set:     352
Inclination:      082.5294 deg
RA of node:       159.9179 deg
Eccentricity:    0.0023673
Arg of perigee:   349.6886 deg
Mean anomaly:     010.3880 deg
Mean motion:   14.81567296 rev/day
Decay rate:       1.80e-06 rev/day^2
Epoch rev:           68008
Checksum:              329

Satellite: NOAA-15
Catalog number: 25338
Epoch time:      08100.67241202
Element set:    0421
Inclination:      098.5527 deg
RA of node:       094.2820 deg
Eccentricity:    0.0009677
Arg of perigee:   238.2942 deg
Mean anomaly:     121.7304 deg
Mean motion:   14.24693892 rev/day
Decay rate:       -5.8e-07 rev/day^2
Epoch rev:           51504
Checksum:              293

Satellite: RESURS
Catalog number: 25394
Epoch time:      08101.73248609
Element set:     899
Inclination:      098.3941 deg
RA of node:       148.7407 deg
Eccentricity:    0.0002387
Arg of perigee:   051.1203 deg
Mean anomaly:     309.0188 deg
Mean motion:   14.24156211 rev/day
Decay rate:       -1.2e-07 rev/day^2
Epoch rev:           50684
Checksum:              288

Satellite: FENGYUN1
Catalog number: 25730
Epoch time:      08100.96524742
Element set:    0420
Inclination:      098.7221 deg
RA of node:       079.0655 deg
Eccentricity:    0.0022387
Arg of perigee:   007.2735 deg
Mean anomaly:     352.8753 deg
Mean motion:   14.07724615 rev/day
Decay rate:       -5.6e-07 rev/day^2
Epoch rev:           45936
Checksum:              298

Satellite: OKEAN-0
Catalog number: 25860
Epoch time:      08100.87101809
Element set:    0338
Inclination:      097.7477 deg
RA of node:       094.4525 deg
Eccentricity:    0.0001593
Arg of perigee:   092.0536 deg
Mean anomaly:     268.0856 deg
Mean motion:   14.73513804 rev/day
Decay rate:        7.2e-07 rev/day^2
Epoch rev:           46933
Checksum:              307

Satellite: NOAA-16
Catalog number: 26536
Epoch time:      08100.70825805
Element set:    0883
Inclination:      099.1536 deg
RA of node:       088.3957 deg
Eccentricity:    0.0011312
Arg of perigee:   060.2271 deg
Mean anomaly:     300.0001 deg
Mean motion:   14.12475190 rev/day
Decay rate:      -1.16e-06 rev/day^2
Epoch rev:           38910
Checksum:              269

Satellite: NOAA-17
Catalog number: 27453
Epoch time:      08100.68352143
Element set:    0878
Inclination:      098.5390 deg
RA of node:       167.2774 deg
Eccentricity:    0.0010805
Arg of perigee:   310.5687 deg
Mean anomaly:     049.4537 deg
Mean motion:   14.23963216 rev/day
Decay rate:       -7.0e-08 rev/day^2
Epoch rev:           30105
Checksum:              303

